Home > Weather > Fort St. John > Past weeks

Flag for Canada Weather for the Past 2 Weeks in Fort St. John, British Columbia, Canada

Now
73 °F

Partly sunny.


Feels Like: 77 °F
Forecast: 52 / 74 °F
Wind: 16 mph from Southwest

Location: Fort St John

Current Time: May 1, 2016 at 4:43:39 PM

Latest Report: May 1, 2016 at 4:00 PM


Visibility: 60 mi

Pressure: 30.09 "Hg (27.79 "Hg at 689m altitude)

Humidity: 31%

Dew Point: 41 °F

Location of Fort St. JohnLocation

Historic Weather in Fort St. John — Graph

°F

Fort St. John Temperature Yesterday

Maximum temperature yesterday: 64 °F (at 4:00 PM)
Minimum temperature yesterday: 37 °F (at 5:00 AM)
Average temperature yesterday: 51 °F

High & Low Weather Summary for the Past Weeks

 TemperatureHumidityPressure
High82 °F (Apr 18, 3:00 PM)100% (Apr 24, 2:00 AM)30.38 "Hg (Apr 24, 2:00 AM)
Low28 °F (Apr 20, 6:00 AM)9% (Apr 19, 5:00 PM)29.72 "Hg (Apr 18, 6:00 PM)
Average49 °F50%30.06 "Hg
* Reported Apr 16 3:00 PM — May 1 3:00 PM, Fort St. John, Weather by CustomWeather, © 2016

Note: Actual official high and low records may vary slightly from our data, if they occured in-between our weather recording intervals... More about our weather records

Advertising

Fort St. John Weather History for the Previous 24 Hours

Scroll right to see more
 ConditionsComfort  
Time TempWeatherWind HumidityBarometerVisibility
3:00 PM
Sun, May 1
72 °FPartly sunny.21 mph33%30.09 "Hg60 mi
2:00 PM72 °FScattered clouds.23 mph33%30.10 "Hg15 mi
1:00 PM70 °FScattered clouds.14 mph35%30.13 "Hg15 mi
12:00 PM68 °FScattered clouds.17 mph38%30.14 "Hg15 mi
11:00 AM68 °FPartly sunny.21 mph35%30.15 "Hg15 mi
10:00 AM64 °FScattered clouds.14 mph40%30.16 "Hg15 mi
9:00 AM61 °FScattered clouds.12 mph42%30.18 "Hg15 mi
8:00 AM57 °FScattered clouds.13 mph44%30.19 "Hg15 mi
7:00 AM54 °FPartly sunny.14 mph47%30.19 "Hg15 mi
6:00 AM52 °FPassing clouds.9 mph50%30.18 "Hg15 mi
5:00 AM52 °FPassing clouds.13 mph44%30.17 "Hg15 mi
4:00 AM52 °FPassing clouds.12 mph41%30.16 "Hg15 mi
3:00 AM54 °FPassing clouds.14 mph35%30.15 "Hg15 mi
2:00 AM54 °FPassing clouds.14 mph33%30.15 "Hg15 mi
1:00 AM54 °FPassing clouds.12 mph30%30.17 "Hg15 mi
12:00 AM52 °FPassing clouds.9 mph32%30.17 "Hg15 mi
11:00 PM
Sat, Apr 30
54 °FPassing clouds.14 mph30%30.16 "Hg15 mi
10:00 PM55 °FPartly cloudy.14 mph26%30.16 "Hg15 mi
9:00 PM54 °FPartly sunny.10 mph28%30.17 "Hg60 mi
8:00 PM57 °FBroken clouds.14 mph23%30.18 "Hg60 mi
7:00 PM61 °FBroken clouds.17 mph20%30.17 "Hg60 mi
6:00 PM63 °FScattered clouds.21 mph17%30.18 "Hg60 mi
5:00 PM64 °FScattered clouds.16 mph13%30.19 "Hg60 mi
4:00 PM64 °FScattered clouds.14 mph15%30.20 "Hg60 mi
Weather by CustomWeather, © 2016

See weather overviewHow to use our weather pages